Regional Weather Roundup
Issued by NWS

Home | Current Version | Previous Version | Graphics & Text | Print | Product List | Glossary On
Versions: 1 2 3 4 5 6 7 8 9 10 11 12 13 14 15 16 17 18 19 20 21 22 23 24 25 26 27 28 29 30 31 32 33 34 35 36 37 38 39 40 41 42 43 44 45 46 47 48 49 50
000
ASUS43 KDTX 170501
RWRMI
MICHIGAN HOURLY REGIONAL WEATHER ROUNDUP
NATIONAL WEATHER SERVICE DETROIT/PONTIAC MI
100 AM EDT WED SEP 17 2014

NOTE: "FAIR" INDICATES FEW OR NO CLOUDS BELOW 12,000 FEET WITH NO
SIGNIFICANT WEATHER AND/OR OBSTRUCTION TO VISIBILITY.

MIZ047>049-052>055-059>063-066>070-074>076-081>083-170600-
SOUTHEAST LOWER MICHIGAN

CITY           SKY/WX    TMP DP  RH WIND       PRES   REMARKS
ADRIAN         CLEAR     47  44  90 CALM      30.10S
ALMA           CLEAR     42  40  95 CALM      30.08S
ANN ARBOR      CLEAR     43  40  89 CALM      30.08F
BAD AXE        CLEAR     40  40 100 CALM      30.06F
CARO           CLEAR     42  41  97 CALM      30.07S
DETROIT CITY   CLEAR     56  45  66 CALM      30.08S
DETROIT        CLEAR     52  45  77 CALM      30.09S
FLINT          CLEAR     46  41  82 CALM      30.08F
GROSSE ILE     CLEAR     52  46  82 CALM      30.07S
HILLSDALE      CLEAR     42  42 100 CALM      30.09F
HOWELL         CLEAR     45  43  93 CALM      30.08S

CITY           SKY/WX    TMP DP  RH WIND       PRES   REMARKS
JACKSON        CLEAR     43  41  93 CALM      30.09F
LAMBERTVILLE   CLEAR     46  45  93 CALM      30.10S
LANSING        CLEAR     44  41  89 CALM      30.09F
LAPEER         FAIR      42  42  97 CALM      30.07F
MASON          CLEAR     42  41  96 CALM      30.09S
MONROE         CLEAR     46  45  93 CALM      30.08S
PONTIAC        CLEAR     50  42  74 CALM      30.07S
PORT HOPE        N/A     50  44  80 W5        30.03S
PORT HURON     FOG       43  43 100 CALM      30.07F VSB 1/4
TRI CITIES     CLEAR     48  42  80 CALM      30.08S
TROY           CLEAR     54  44  68 W6        30.09S
SAGINAW HB     CLEAR     46  43  87 SW3       30.07S
$$
MIZ043>046-050>051-056>058-064>065-071>073-077>080-170600-
SOUTHWEST LOWER MICHIGAN

CITY           SKY/WX    TMP DP  RH WIND       PRES   REMARKS
BATTLE CREEK   CLEAR     46  41  82 CALM      30.09F
BENTON HARBOR  CLEAR     42  42 100 CALM      30.09F
BIG RAPIDS     CLEAR     41  41 100 CALM      30.07S
COLDWATER      CLEAR     45  44  97 MISG      30.09F
FREMONT        FAIR      41  40  97 CALM      30.08S
HOLLAND        CLEAR     44  41  89 CALM      30.09F
GRAND RAPIDS   CLEAR     48  42  80 CALM      30.09S
IONIA          FAIR      45  43  90 CALM      30.08S
KALAMAZOO      CLEAR     43  41  93 CALM      30.10S
LUDINGTON      CLEAR     42  41  95 CALM      30.06F
MARSHALL       PTCLDY    39  38  96 CALM      30.09S FOG
MOUNT PLEASANT CLEAR     43  42  97 CALM      30.06F
MUSKEGON       CLEAR     46  41  82 CALM      30.09S
SOUTH HAVEN    CLEAR     43  42  98 CALM      30.09S
$$
MIZ016>042-170600-
NORTHERN LOWER MICHIGAN

CITY           SKY/WX    TMP DP  RH WIND       PRES   REMARKS
ALPENA         CLOUDY    50  41  71 SW6       30.01S
BEAVER ISLAND  FOG       51  50  97 CALM      30.00S VSB 1/2
BELLAIRE       CLEAR     50  44  79 S3        30.02F
CADILLAC       CLEAR     42  40  93 CALM      30.05S
CHARLEVOIX     CLEAR     55  49  80 SW6       30.03F
FRANKFORT      CLEAR     59  49  68 W6        30.04S
GAYLORD        CLEAR     47  41  80 W7        30.02F
GRAYLING       CLEAR     42  40  94 CALM      30.04F
HARBOR SPRINGS CLEAR     54  46  75 S6        30.01S
HOUGHTON LAKE  CLEAR     49  42  77 W6        30.05F
MANISTEE       CLEAR     43  37  81 CALM      30.06S
OSCODA         CLEAR     47  43  85 W6        30.02F
PELLSTON       PTCLDY    52  47  83 S6        30.00F
ROGERS CITY    PTCLDY    49  44  81 SW8       30.01F
TRAVERSE CITY  CLEAR     52  44  74 CALM      30.02S
$$
MIZ007>008-015-170600-
EASTERN UPPER MICHIGAN

CITY           SKY/WX    TMP DP  RH WIND       PRES   REMARKS
KINROSS        CLOUDY    50  48  93 NW5       29.99S
MACKINAC ISLAN CLOUDY    53  49  86 N5        29.99S
NEWBERRY       CLOUDY    47  45  93 CALM      29.99S
S. S. MARIE    CLEAR     48  44  86 CALM      29.99R
$$
MIZ004>006-011>014-085-170600-
CENTRAL UPPER MICHIGAN

CITY           SKY/WX    TMP DP  RH WIND       PRES   REMARKS
MANISTIQUE     CLEAR     46  44  93 N3        30.00S
ESCANABA       CLEAR     45  43  93 CALM      30.00S
MENOMINEE      CLEAR     52  45  76 W5        30.01S
SAWYER-GWINN   MOCLDY    48  44  86 CALM      30.00F
$$
MIZ001>003-009>011-084-170600-
WESTERN UPPER MICHIGAN

CITY           SKY/WX    TMP DP  RH WIND       PRES   REMARKS
IRON MOUNTAIN  CLEAR     52  42  69 W6        29.99S
HOUGHTON       CLOUDY    48  45  89 E9        29.98F
COPPER HARBOR    N/A     46  40  79 SE7       30.01S
IRONWOOD       CLOUDY    54  45  71 SW9       29.97S
$$

ABBREVIATIONS USED IN REMARKS
   TC - TEMPERATURE IN CELSIUS
  WCI - WIND CHILL INDEX
   HX - HEAT INDEX
  VSB - VISIBILITY




USA.gov is the U.S. government's official web portal to all federal, state and local government web resources and services.